Location: Stockholm
(59.3330°N, 18.0500°E)
Time: 09:34:19
(UTC+01:00)

DMSP 5D-2 F13 DEB - Visible Passes

Search period start: 02 December 2023 00:00
Search period end: 12 December 2023 00:00
Orbit: 768 x 841 km, 98.6° (Epoch: 18 November)

Date Brightness Start Highest point End Pass type
(mag) Time Alt. Az. Time Alt. Az. Time Alt. Az.
02 Dec ? 05:56:44 10° NE 06:00:59 26° E 06:05:15 10° SSE visible
02 Dec ? 15:47:41 10° ESE 15:51:52 26° NE 15:56:01 10° N visible
02 Dec ? 17:26:00 10° SSE 17:31:11 88° WSW 17:36:21 10° NNW visible
02 Dec ? 19:07:54 10° SW 19:11:43 21° W 19:15:32 10° NW visible
03 Dec ? 05:31:57 10° NE 05:35:25 18° E 05:38:52 10° SE visible
03 Dec ? 07:10:56 10° NNE 07:16:04 77° ESE 07:21:13 10° SSW visible
03 Dec ? 17:00:52 10° SSE 17:05:58 66° ENE 17:11:03 10° NNW visible
03 Dec ? 18:41:42 10° SSW 18:46:10 30° W 18:50:39 10° NNW visible
04 Dec ? 05:07:46 10° ENE 05:09:44 12° E 05:11:42 10° ESE visible
04 Dec ? 06:45:43 10° NNE 06:50:45 53° ESE 06:55:47 10° S visible
04 Dec ? 16:35:56 10° SE 16:40:49 46° ENE 16:45:42 10° N visible
04 Dec ? 18:15:50 10° S 18:20:43 43° W 18:25:36 10° NNW visible
05 Dec ? 06:20:36 10° NNE 06:25:20 37° E 06:30:05 10° SSE visible
05 Dec ? 16:11:11 10° ESE 16:15:45 34° NE 16:20:19 10° N visible
05 Dec ? 17:50:15 10° S 17:55:21 62° WSW 18:00:26 10° NNW visible
05 Dec ? 19:33:29 10° WSW 19:36:12 14° W 19:38:56 10° NW visible
06 Dec ? 05:55:36 10° NE 05:59:51 25° E 06:04:06 10° SSE visible
06 Dec ? 15:46:37 10° ESE 15:50:45 25° NE 15:54:52 10° N visible
06 Dec ? 17:24:54 10° SSE 17:30:03 89° WSW 17:35:12 10° NNW visible
06 Dec ? 19:06:44 10° SW 19:10:35 21° W 19:14:24 10° NW visible
07 Dec ? 05:30:50 10° NE 05:34:15 18° E 05:37:42 10° SE visible
07 Dec ? 07:09:47 10° NNE 07:14:56 76° ESE 07:20:06 10° SSW visible
07 Dec ? 16:59:46 10° SE 17:04:50 65° ENE 17:09:54 10° NNW visible
07 Dec ? 18:40:33 10° SSW 18:45:02 30° W 18:49:31 10° NNW visible
08 Dec ? 05:06:40 10° ENE 05:08:35 12° E 05:10:30 10° ESE visible
08 Dec ? 06:44:34 10° NNE 06:49:36 52° E 06:54:39 10° S visible
08 Dec ? 16:34:49 10° SE 16:39:41 46° ENE 16:44:33 10° N visible
08 Dec ? 18:14:41 10° S 18:19:34 43° W 18:24:27 10° NNW visible
09 Dec ? 06:19:26 10° NNE 06:24:11 36° E 06:28:57 10° SSE visible
09 Dec ? 16:10:05 10° ESE 16:14:37 33° NE 16:19:09 10° N visible
09 Dec ? 17:49:07 10° S 17:54:11 63° WSW 17:59:17 10° NNW visible
09 Dec ? 19:32:16 10° WSW 19:35:03 14° W 19:37:49 10° NW visible
10 Dec ? 05:54:27 10° NE 05:58:41 25° E 06:02:57 10° SE visible
10 Dec ? 07:33:54 10° NNE 07:39:02 77° WNW 07:44:13 10° SSW visible
10 Dec ? 15:45:31 10° ESE 15:49:36 25° NE 15:53:43 10° N visible
10 Dec ? 17:23:46 10° SSE 17:28:54 90° ENE 17:34:02 10° NNW visible
10 Dec ? 19:05:33 10° SW 19:09:24 21° W 19:13:16 10° NW visible
11 Dec ? 05:29:41 10° NE 05:33:06 18° E 05:36:32 10° SE visible
11 Dec ? 07:08:37 10° NNE 07:13:47 75° ESE 07:18:59 10° SSW visible
11 Dec ? 16:58:38 10° SE 17:03:40 63° ENE 17:08:44 10° NNW visible
11 Dec ? 18:39:22 10° SSW 18:43:51 30° W 18:48:22 10° NNW visible
